TimeEDT,TemperatureF,Dew PointF,Humidity,Sea Level PressureIn,VisibilityMPH,Wind Direction,Wind SpeedMPH,Gust SpeedMPH,PrecipitationIn,Events,Conditions,WindDirDegrees,DateUTC
4:35 AM,69.8,66.2,88,29.93,10.0,Calm,Calm,-,N/A,,Overcast,0,2014-08-12 08:35:00
4:55 AM,68.0,68.0,100,29.92,10.0,Calm,Calm,-,N/A,,Overcast,0,2014-08-12 08:55:00
5:15 AM,68.0,68.0,100,29.92,10.0,Calm,Calm,-,N/A,,Overcast,0,2014-08-12 09:15:00
5:35 AM,68.0,68.0,100,29.91,10.0,Calm,Calm,-,N/A,,Mostly Cloudy,0,2014-08-12 09:35:00
6:35 AM,68.0,68.0,100,29.92,10.0,Calm,Calm,-,N/A,,Overcast,0,2014-08-12 10:35:00
6:55 AM,69.8,68.0,94,29.92,10.0,Calm,Calm,-,N/A,,Overcast,0,2014-08-12 10:55:00
7:15 AM,69.8,68.0,94,29.92,10.0,Calm,Calm,-,N/A,,Overcast,0,2014-08-12 11:15:00
7:35 AM,69.8,68.0,94,29.92,10.0,Calm,Calm,-,N/A,,Overcast,0,2014-08-12 11:35:00
7:55 AM,69.8,68.0,94,29.92,10.0,Calm,Calm,-,N/A,,Overcast,0,2014-08-12 11:55:00
8:15 AM,69.8,69.8,100,29.92,10.0,Calm,Calm,-,N/A,,Overcast,0,2014-08-12 12:15:00
8:35 AM,71.6,69.8,94,29.92,10.0,Calm,Calm,-,N/A,,Overcast,0,2014-08-12 12:35:00
8:55 AM,71.6,69.8,94,29.91,7.0,Calm,Calm,-,N/A,,Overcast,0,2014-08-12 12:55:00
9:15 AM,73.4,69.8,88,29.91,7.0,SSE,4.6,-,N/A,,Overcast,150,2014-08-12 13:15:00
9:35 AM,73.4,71.6,94,29.91,10.0,Calm,Calm,-,N/A,,Overcast,0,2014-08-12 13:35:00
9:55 AM,73.4,71.6,94,29.91,10.0,Calm,Calm,-,N/A,,Overcast,0,2014-08-12 13:55:00
10:35 AM,77.0,71.6,83,29.92,10.0,Calm,Calm,-,N/A,,Overcast,0,2014-08-12 14:35:00
10:55 AM,77.0,71.6,83,29.92,10.0,Calm,Calm,-,N/A,,Overcast,0,2014-08-12 14:55:00
11:15 AM,78.8,71.6,78,29.92,10.0,Calm,Calm,-,N/A,,Mostly Cloudy,0,2014-08-12 15:15:00
11:35 AM,78.8,71.6,78,29.92,10.0,SW,3.5,-,N/A,,Overcast,220,2014-08-12 15:35:00
11:55 AM,78.8,71.6,78,29.91,10.0,Calm,Calm,-,N/A,,Overcast,0,2014-08-12 15:55:00
1:35 PM,80.6,71.6,74,29.87,10.0,Calm,Calm,-,N/A,,Mostly Cloudy,0,2014-08-12 17:35:00
1:55 PM,80.6,71.6,74,29.87,10.0,Calm,Calm,-,N/A,,Mostly Cloudy,0,2014-08-12 17:55:00
2:15 PM,80.6,73.4,79,29.86,10.0,Calm,Calm,-,N/A,,Mostly Cloudy,0,2014-08-12 18:15:00
2:35 PM,82.4,71.6,70,29.85,10.0,SW,3.5,-,N/A,,Mostly Cloudy,230,2014-08-12 18:35:00
2:55 PM,82.4,73.4,74,29.84,10.0,WSW,3.5,-,N/A,,Mostly Cloudy,240,2014-08-12 18:55:00
3:15 PM,82.4,73.4,74,29.84,10.0,SSW,5.8,-,N/A,,Mostly Cloudy,210,2014-08-12 19:15:00
3:35 PM,82.4,73.4,74,29.83,10.0,South,4.6,-,N/A,,Mostly Cloudy,170,2014-08-12 19:35:00
3:55 PM,82.4,73.4,74,29.82,10.0,South,4.6,-,N/A,,Mostly Cloudy,180,2014-08-12 19:55:00
4:15 PM,82.4,73.4,74,29.82,10.0,Calm,Calm,-,N/A,,Scattered Clouds,0,2014-08-12 20:15:00
4:55 PM,84.2,73.4,70,29.81,10.0,South,5.8,-,N/A,,Scattered Clouds,190,2014-08-12 20:55:00
5:15 PM,82.4,73.4,74,29.81,10.0,SSW,4.6,-,N/A,,Clear,200,2014-08-12 21:15:00
5:35 PM,84.2,73.4,70,29.80,10.0,South,6.9,-,N/A,,Clear,180,2014-08-12 21:35:00
6:15 PM,80.6,73.4,79,29.80,10.0,South,4.6,-,N/A,,Clear,170,2014-08-12 22:15:00
6:35 PM,80.6,73.4,79,29.79,10.0,Calm,Calm,-,N/A,,Clear,0,2014-08-12 22:35:00
6:55 PM,78.8,73.4,83,29.81,10.0,SSE,3.5,-,N/A,,Scattered Clouds,160,2014-08-12 22:55:00
7:15 PM,78.8,73.4,83,29.81,10.0,Calm,Calm,-,N/A,,Scattered Clouds,0,2014-08-12 23:15:00
7:55 PM,69.8,68.0,94,29.84,2.5,Calm,Calm,-,0.19,Rain,Heavy Rain,0,2014-08-12 23:55:00
8:15 PM,69.8,68.0,94,29.82,7.0,Calm,Calm,-,0.07,Rain,Light Rain,0,2014-08-13 00:15:00
8:35 PM,69.8,69.8,100,29.84,10.0,Calm,Calm,-,0.09,Rain,Light Rain,0,2014-08-13 00:35:00
8:55 PM,69.8,68.0,94,29.84,10.0,Calm,Calm,-,0.09,Rain,Light Rain,0,2014-08-13 00:55:00
9:15 PM,69.8,68.0,94,29.85,7.0,Calm,Calm,-,N/A,,Drizzle,0,2014-08-13 01:15:00
9:35 PM,69.8,68.0,94,29.85,10.0,South,5.8,-,0.01,Rain,Light Rain,170,2014-08-13 01:35:00
9:55 PM,69.8,68.0,94,29.84,10.0,SSE,5.8,-,0.03,Rain,Light Rain,150,2014-08-13 01:55:00
10:35 PM,69.8,68.0,94,29.86,10.0,South,5.8,-,N/A,,Scattered Clouds,190,2014-08-13 02:35:00
11:15 PM,69.8,69.8,100,29.85,10.0,South,8.1,-,N/A,,Clear,180,2014-08-13 03:15:00
11:35 PM,69.8,69.8,100,29.85,10.0,South,9.2,-,N/A,,Scattered Clouds,180,2014-08-13 03:35:00
11:55 PM,69.8,69.8,100,29.85,10.0,Calm,Calm,-,N/A,,Clear,0,2014-08-13 03:55:00